This is the latest recevied weather packets stored in our database for station/object WD7OO. If no packets are shown the sender has not sent any weather packets the latest 10 day(s).
| Time | Temp. | Humidity | Pressure | Rain* | Wind** | Luminosity | Snow |
|---|---|---|---|---|---|---|---|
| 1788453790 | 33.33° C | 64% | 1014.7 hPa | 0 mm | - | 626 W/m² | - |
| 1788453489 | 33.89° C | 62% | 1014.8 hPa | 0 mm | - | 648 W/m² | - |
| 1788453186 | 33.33° C | 65% | 1015.1 hPa | 0 mm | - | 666 W/m² | - |
| 1788452881 | 33.33° C | 64% | 1014.9 hPa | 0 mm | - | 687 W/m² | - |
| 1788452577 | 32.78° C | 62% | 1014.8 hPa | 0 mm | - | 707 W/m² | - |
| 1788452273 | 32.78° C | 66% | 1015.1 hPa | 0 mm | - | 721 W/m² | - |
| 1788451968 | 32.22° C | 66% | 1015.2 hPa | 0 mm | - | 706 W/m² | - |
| 1788451664 | 32.22° C | 68% | 1015.3 hPa | 0 mm | - | 698 W/m² | - |
| 1788451363 | 32.78° C | 65% | 1015.4 hPa | 0 mm | - | 696 W/m² | - |
| 1788451061 | 32.78° C | 64% | 1015.4 hPa | 0 mm | - | 667 W/m² | - |
| 1788450757 | 32.78° C | 66% | 1015.3 hPa | 0 mm | - | 664 W/m² | - |
| 1788450452 | 31.67° C | 69% | 1015.4 hPa | 0 mm | - | 656 W/m² | - |
| 1788450148 | 31.67° C | 67% | 1015.6 hPa | 0 mm | - | 637 W/m² | - |
| 1788449843 | 31.11° C | 70% | 1015.5 hPa | 0 mm | - | 627 W/m² | - |
| 1788449539 | 31.11° C | 69% | 1015.8 hPa | 0 mm | - | 611 W/m² | - |
| 1788449235 | 31.67° C | 69% | 1015.7 hPa | 0 mm | - | 615 W/m² | - |
| 1788448932 | 31.67° C | 69% | 1015.7 hPa | 0 mm | - | 602 W/m² | - |
| 1788448631 | 31.11° C | 71% | 1015.9 hPa | 0 mm | - | 592 W/m² | - |
| 1788448326 | 31.11° C | 70% | 1015.9 hPa | 0 mm | - | 546 W/m² | - |
| 1788448021 | 31.11° C | 71% | 1015.7 hPa | 0 mm | - | 550 W/m² | - |
| 1788447716 | 31.11° C | 72% | 1015.8 hPa | 0 mm | - | 563 W/m² | - |
| 1788447416 | 30.56° C | 71% | 1015.9 hPa | 0 mm | - | 550 W/m² | - |
| 1788447117 | 30.56° C | 71% | 1015.8 hPa | 0 mm | - | 504 W/m² | - |
| 1788446810 | 30.56° C | 70% | 1015.7 hPa | 0 mm | - | 491 W/m² | - |
| 1788446506 | 30.56° C | 72% | 1015.7 hPa | 0 mm | - | 473 W/m² | - |
* Rain latest hour (hover to see other rain measurements)
** Current wind speed in m/s (hover to see current wind gust speed)